Temp
-13 -12 -12 -12 -12 -12 -12 -12 -13 -12 -13 -13 -13 -13 -13 -12 -12 -12 -12 -12 -12 -12 -12 -12 -12 -12 -12 -12 -12 -12 -12 -12 -12 -12 -13 -13 -13 -13 -13 -13 -13 -13 -13
-12 -12 -11 -12 -12 -12 -12 -12 -13 -13 -13 -13 -13 -13 -13 -13 -12 -12 -12 -12 -12 -12 -12 -12 -12 -12 -12 -12 -12 -13 -13 -13 -13 -13 -13 -13 -13 -13 -13 -13 -13 -13 -13
-13 -13 -12 -12 -12 -12 -12 -13 -13 -13 -13 -13 -13 -13 -13 -12 -12 -12 -12 -12 -12 -13 -13 -12 -12 -12 -12 -13 -13 -13 -13 -13 -13 -13 -13 -13 -13 -13 -13 -13 -13 -13 -13
-12 -12 -12 -12 -12 -12 -13 -12 -13 -13 -13 -13 -13 -13 -13 -12 -12 -12 -13 -13 -13 -13 -13 -13 -13 -13 -13 -13 -13 -13 -13 -13 -13 -14 -14 -14 -13 -13 -13 -13 -13 -13 -13
-13 -13 -12 -12 -13 -13 -13 -13 -13 -13 -13 -13 -13 -13 -13 -13 -13 -13 -13 -13 -13 -13 -13 -13 -13 -13 -13 -13 -13 -13 -13 -14 -14 -14 -14 -14 -14 -13 -13 -13 -13 -13 -13
-13 -13 -13 -14 -13 -13 -13 -13 -13 -13 -13 -12 -13 -13 -13 -13 -13 -13 -13 -13 -13 -13 -13 -13 -14 -14 -14 -14 -14 -14 -14 -14 -14 -14 -14 -14 -14 -14 -13 -13 -14 -14 -15
-13 -13 -13 -13 -13 -13 -13 -13 -13 -13 -13 -13 -13 -13 -13 -13 -13 -14 -14 -14 -14 -14 -14 -14 -14 -14 -14 -14 -14 -14 -14 -14 -14 -14 -14 -14 -14 -14 -14 -14 -14 -14 -15
-13 -13 -13 -13 -13 -13 -13 -13 -13 -13 -13 -13 -13 -13 -13 -14 -14 -14 -14 -14 -14 -14 -14 -14 -14 -14 -14 -15 -15 -15 -15 -15 -15 -15 -15 -15 -15 -15 -15 -15 -15 -15 -15
-13 -13 -13 -13 -13 -13 -13 -13 -13 -13 -13 -13 -14 -14 -14 -14 -14 -14 -14 -14 -14 -15 -15 -15 -15 -15 -15 -15 -15 -15 -15 -15 -15 -15 -15 -16 -16 -17 -17 -17 -17 -17 -16
-13 -13 -13 -13 -13 -13 -13 -13 -13 -13 -14 -14 -14 -14 -14 -14 -14 -15 -15 -15 -15 -15 -15 -15 -15 -16 -15 -15 -15 -16 -16 -16 -16 -16 -16 -17 -17 -18 -18 -18 -18 -19 -18
-13 -13 -13 -13 -13 -13 -13 -14 -14 -14 -14 -15 -15 -14 -15 -15 -15 -15 -15 -15 -15 -15 -15 -16 -16 -16 -16 -16 -16 -16 -16 -17 -17 -17 -17 -18 -18 -19 -19 -19 -20 -20 -20
-13 -13 -13 -13 -13 -14 -14 -14 -14 -15 -15 -15 -15 -15 -15 -15 -15 -15 -15 -15 -16 -16 -16 -16 -16 -16 -16 -16 -17 -17 -17 -17 -17 -18 -19 -19 -19 -20 -20 -20 -20 -21 -21
-13 -14 -14 -14 -14 -14 -14 -15 -15 -15 -15 -15 -15 -15 -15 -15 -16 -16 -16 -16 -16 -16 -16 -17 -17 -17 -17 -17 -18 -18 -18 -18 -19 -19 -20 -20 -20 -21 -21 -22 -22 -22 -22
-14 -14 -14 -15 -15 -15 -15 -15 -15 -15 -15 -15 -15 -15 -16 -16 -16 -16 -16 -16 -17 -17 -17 -17 -17 -18 -18 -18 -19 -19 -19 -20 -20 -20 -21 -21 -22 -22 -22 -22 -22 -23 -23
-15 -15 -15 -15 -15 -15 -15 -15 -15 -15 -15 -16 -16 -16 -16 -16 -16 -16 -17 -17 -17 -17 -18 -18 -18 -18 -19 -19 -19 -20 -20 -21 -21 -22 -22 -22 -23 -23 -23 -23 -24 -24 -24
-15 -15 -15 -15 -15 -15 -15 -15 -15 -16 -16 -16 -16 -16 -16 -16 -17 -17 -17 -18 -18 -18 -18 -19 -19 -19 -20 -20 -21 -21 -21 -22 -22 -23 -23 -23 -24 -24 -24 -24 -25 -26 -27
-15 -15 -15 -15 -15 -15 -15 -15 -15 -16 -16 -16 -16 -17 -17 -17 -17 -18 -18 -18 -19 -19 -19 -20 -20 -21 -21 -21 -22 -22 -23 -23 -23 -24 -24 -24 -24 -25 -25 -26 -27 -27 -28
-15 -15 -15 -15 -15 -15 -15 -16 -16 -16 -17 -17 -17 -17 -17 -17 -18 -18 -19 -19 -19 -20 -20 -21 -21 -22 -22 -23 -23 -23 -23 -24 -24 -24 -25 -25 -25 -26 -28 -28 -28 -29 -29
-15 -15 -15 -15 -15 -16 -16 -17 -17 -17 -17 -17 -17 -18 -18 -19 -19 -19 -20 -20 -20 -21 -21 -22 -22 -23 -23 -24 -24 -24 -24 -24 -25 -25 -25 -26 -27 -28 -29 -29 -30 -29 -30
-15 -15 -16 -16 -16 -16 -17 -17 -17 -17 -17 -18 -18 -18 -19 -19 -20 -20 -20 -21 -21 -22 -22 -23 -23 -24 -24 -24 -24 -25 -25 -25 -25 -26 -27 -28 -29 -30 -30 -31 -31 -31 -32
-16 -16 -16 -17 -17 -17 -17 -17 -18 -18 -18 -18 -19 -19 -20 -20 -21 -21 -22 -22 -23 -23 -24 -24 -24 -24 -25 -25 -25 -25 -26 -26 -26 -27 -29 -30 -31 -31 -32 -32 -33 -34 -34
-16 -16 -16 -16 -17 -17 -17 -18 -18 -19 -19 -20 -20 -21 -21 -22 -22 -22 -23 -23 -23 -24 -24 -24 -25 -25 -25 -25 -26 -26 -26 -27 -28 -30 -30 -31 -32 -32 -33 -34 -34 -34 -35
-18 -18 -18 -18 -18 -19 -19 -19 -20 -20 -21 -21 -22 -22 -22 -23 -23 -23 -24 -24 -24 -25 -25 -25 -25 -25 -26 -26 -27 -27 -28 -29 -30 -31 -31 -32 -33 -34 -34 -34 -34 -35 -35
-19 -19 -19 -19 -19 -20 -20 -20 -21 -21 -22 -23 -23 -23 -24 -24 -24 -24 -25 -25 -25 -25 -26 -26 -26 -26 -27 -27 -27 -28 -30 -31 -31 -32 -32 -33 -34 -34 -34 -34 -34 -35 -35
-19 -19 -20 -20 -20 -21 -21 -22 -22 -23 -23 -24 -24 -24 -24 -25 -25 -25 -25 -26 -26 -26 -26 -27 -27 -27 -27 -28 -29 -30 -31 -31 -31 -32 -33 -33 -34 -34 -34 -34 -34 -35 -35
-20 -20 -21 -21 -22 -22 -23 -23 -24 -24 -24 -24 -24 -24 -24 -25 -25 -26 -26 -27 -27 -27 -27 -28 -28 -28 -28 -29 -31 -31 -31 -32 -32 -32 -33 -34 -34 -34 -34 -34 -34 -35 -35
Height
5816 5821 5823 5824 5827 5828 5828 5831 5831 5830 5831 5831 5830 5829 5827 5825 5824 5821 5820 5818 5816 5814 5812 5809 5807 5804 5801 5798 5795 5792 5789 5786 5783 5780 5777 5774 5771 5768 5766 5763 5761 5758 5755
5811 5814 5817 5819 5821 5821 5822 5822 5823 5825 5826 5825 5823 5822 5820 5818 5816 5815 5813 5811 5809 5807 5805 5802 5799 5796 5792 5789 5786 5783 5780 5777 5774 5771 5768 5765 5762 5759 5756 5753 5750 5747 5744
5806 5810 5812 5814 5815 5815 5813 5815 5816 5818 5819 5818 5816 5815 5812 5811 5809 5808 5806 5803 5801 5799 5797 5794 5790 5787 5783 5780 5777 5774 5771 5767 5764 5760 5758 5755 5752 5749 5746 5743 5739 5736 5732
5799 5803 5804 5807 5807 5806 5807 5808 5809 5810 5811 5810 5808 5807 5805 5803 5801 5799 5797 5795 5793 5790 5787 5784 5780 5776 5773 5770 5767 5763 5760 5756 5753 5750 5746 5743 5740 5737 5735 5730 5727 5724 5720
5791 5794 5794 5791 5799 5801 5803 5802 5803 5802 5802 5801 5800 5799 5797 5794 5792 5790 5787 5785 5783 5780 5777 5773 5769 5766 5762 5759 5756 5753 5749 5745 5742 5738 5734 5730 5727 5724 5721 5717 5711 5708 5703
5785 5789 5789 5787 5792 5795 5795 5794 5794 5794 5794 5793 5792 5790 5788 5786 5783 5780 5778 5775 5772 5769 5765 5762 5758 5755 5751 5748 5744 5740 5737 5733 5729 5725 5720 5716 5712 5707 5703 5700 5696 5693 5687
5778 5781 5782 5783 5785 5785 5785 5785 5786 5785 5785 5784 5782 5781 5778 5775 5772 5769 5767 5763 5760 5757 5753 5750 5747 5743 5740 5736 5732 5728 5723 5719 5714 5710 5705 5700 5695 5690 5684 5680 5677 5675 5672
5771 5773 5775 5775 5776 5777 5776 5777 5777 5777 5775 5773 5772 5769 5767 5765 5762 5759 5756 5752 5749 5745 5742 5738 5734 5731 5727 5722 5718 5714 5709 5704 5699 5694 5689 5683 5676 5670 5665 5660 5656 5655 5652
5762 5764 5766 5767 5768 5767 5768 5769 5768 5767 5765 5763 5761 5759 5757 5753 5750 5747 5744 5740 5737 5733 5729 5725 5721 5717 5713 5709 5704 5699 5694 5688 5682 5676 5670 5664 5658 5651 5645 5640 5635 5629 5630
5753 5755 5756 5757 5758 5759 5759 5759 5757 5756 5754 5752 5750 5748 5745 5742 5739 5735 5731 5728 5724 5720 5716 5712 5707 5704 5699 5694 5689 5683 5677 5671 5664 5657 5651 5645 5640 5634 5627 5621 5615 5608 5603
5743 5745 5747 5747 5748 5749 5749 5748 5746 5744 5743 5741 5739 5736 5733 5730 5726 5722 5718 5715 5710 5706 5702 5697 5693 5688 5683 5678 5672 5666 5659 5653 5646 5640 5633 5627 5620 5614 5608 5601 5594 5588 5578
5736 5737 5738 5738 5738 5738 5737 5736 5735 5734 5732 5730 5727 5723 5720 5716 5713 5709 5705 5701 5696 5692 5687 5682 5677 5672 5666 5660 5654 5648 5640 5634 5628 5621 5614 5607 5600 5594 5587 5579 5572 5564 5554
5726 5727 5728 5728 5727 5727 5727 5726 5725 5723 5720 5717 5714 5711 5707 5704 5700 5696 5692 5687 5682 5677 5672 5666 5661 5655 5649 5642 5636 5630 5623 5615 5609 5601 5594 5587 5579 5573 5564 5555 5547 5537 5526
5717 5717 5718 5718 5717 5717 5717 5715 5713 5710 5707 5705 5702 5698 5695 5691 5687 5682 5677 5672 5666 5661 5655 5649 5644 5637 5632 5625 5619 5612 5604 5597 5590 5582 5573 5565 5555 5546 5537 5526 5516 5503 5491
5707 5708 5709 5709 5708 5707 5705 5703 5701 5698 5695 5692 5689 5685 5681 5677 5672 5667 5661 5655 5650 5644 5638 5632 5626 5619 5613 5607 5600 5593 5586 5579 5571 5561 5552 5543 5534 5523 5509 5495 5484 5469 5458
5699 5699 5698 5698 5697 5696 5695 5692 5689 5686 5683 5679 5675 5671 5666 5661 5656 5650 5645 5640 5634 5627 5621 5614 5608 5601 5594 5587 5580 5574 5567 5558 5549 5540 5530 5520 5509 5496 5482 5468 5453 5436 5422
5691 5690 5689 5689 5687 5685 5682 5679 5676 5673 5669 5665 5661 5656 5651 5646 5640 5635 5629 5623 5617 5610 5603 5597 5591 5584 5576 5569 5563 5555 5547 5538 5527 5517 5505 5494 5481 5466 5452 5438 5425 5414 5401
5681 5680 5678 5676 5674 5672 5669 5666 5662 5658 5654 5650 5645 5641 5635 5630 5625 5619 5613 5607 5600 5593 5587 5580 5573 5566 5558 5550 5543 5535 5526 5515 5504 5492 5479 5466 5455 5440 5424 5414 5405 5395 5384
5669 5667 5666 5664 5661 5658 5655 5651 5647 5644 5640 5635 5630 5625 5619 5614 5609 5603 5597 5591 5585 5578 5571 5564 5557 5549 5539 5530 5521 5513 5504 5494 5483 5470 5454 5439 5429 5418 5407 5394 5384 5377 5367
5656 5653 5652 5650 5647 5644 5641 5637 5633 5628 5623 5618 5613 5609 5604 5598 5593 5587 5582 5575 5569 5562 5555 5547 5539 5530 5521 5510 5500 5491 5482 5474 5463 5448 5434 5420 5409 5399 5388 5377 5368 5359 5351
5644 5641 5639 5636 5633 5629 5625 5621 5617 5612 5608 5604 5599 5594 5589 5584 5579 5572 5566 5559 5552 5544 5536 5529 5519 5510 5501 5491 5480 5469 5459 5449 5439 5428 5419 5408 5395 5385 5375 5364 5354 5346 5339
5630 5627 5625 5622 5619 5616 5612 5607 5603 5599 5594 5589 5584 5579 5573 5567 5561 5555 5548 5540 5534 5526 5518 5510 5502 5492 5482 5471 5461 5449 5438 5428 5419 5411 5402 5393 5382 5373 5364 5355 5347 5339 5331
5617 5614 5611 5608 5605 5601 5597 5593 5588 5583 5578 5572 5567 5562 5556 5550 5543 5537 5530 5523 5515 5508 5500 5492 5485 5476 5464 5454 5442 5431 5421 5411 5402 5394 5386 5378 5369 5362 5355 5346 5338 5330 5323
5602 5599 5596 5593 5589 5586 5581 5576 5572 5567 5562 5556 5551 5546 5539 5533 5525 5519 5512 5505 5498 5490 5482 5474 5467 5458 5450 5438 5428 5417 5406 5397 5389 5381 5374 5366 5359 5353 5345 5337 5328 5320 5313
5586 5582 5579 5576 5572 5568 5563 5559 5555 5550 5545 5539 5534 5528 5522 5515 5509 5501 5494 5487 5478 5471 5464 5456 5448 5441 5433 5423 5412 5403 5394 5386 5378 5370 5363 5356 5350 5344 5336 5328 5319 5311 5304
5570 5566 5563 5560 5555 5551 5548 5544 5540 5535 5529 5524 5517 5511 5505 5498 5491 5484 5477 5466 5459 5452 5444 5436 5430 5423 5414 5406 5397 5389 5380 5373 5365 5359 5352 5346 5340 5333 5326 5318 5310 5302 5295
Wind_Speed
41 38 35 36 36 34 31 34 29 28 25 30 33 35 34 32 31 31 30 30 30 31 31 32 32 32 33 34 36 37 37 37 38 37 37 36 37 37 35 36 38 40 41
45 37 37 34 35 36 36 34 28 24 29 33 35 36 35 34 33 34 34 34 34 34 34 34 34 36 37 39 40 41 41 41 41 40 39 39 38 38 40 41 43 46 47
38 43 40 41 39 39 37 32 25 29 33 34 35 37 36 37 37 36 36 37 36 37 37 37 38 39 41 43 44 44 44 44 43 42 41 41 41 43 44 46 48 50 51
43 40 50 35 26 35 27 27 27 30 34 37 38 39 38 39 39 39 39 39 39 39 40 40 42 43 45 46 46 46 47 46 44 44 44 45 47 48 50 52 54 55 56
42 45 54 43 25 14 24 29 32 35 38 39 39 40 40 40 40 41 42 42 42 42 43 44 46 47 47 48 49 49 49 48 48 48 49 51 52 54 55 56 59 60 61
41 34 30 31 21 23 29 31 38 39 40 41 42 42 42 42 42 43 43 42 43 45 47 48 49 49 49 51 52 51 50 51 52 54 56 57 59 61 62 64 64 63 63
37 32 28 26 26 30 34 35 39 41 43 42 43 44 45 45 44 44 44 44 46 49 51 51 51 51 53 54 53 53 55 56 58 60 61 63 66 67 68 69 69 68 65
36 34 31 31 31 34 37 40 42 43 44 44 45 46 47 46 45 45 46 47 50 52 53 52 53 54 56 55 56 58 60 62 64 66 68 70 71 71 72 72 72 70 69
36 34 34 35 36 37 39 42 44 46 46 47 49 49 47 47 47 47 49 51 53 53 54 55 56 57 57 58 61 62 65 67 69 71 72 71 70 71 72 73 75 76 75
35 36 38 39 41 43 45 45 47 48 49 50 48 48 48 48 48 50 53 54 54 55 57 58 58 58 60 62 65 67 69 72 73 72 71 72 73 75 75 76 77 79 79
38 39 40 43 44 45 47 48 49 49 48 47 47 47 48 50 52 53 54 55 57 59 60 59 61 63 65 68 69 71 72 71 71 72 74 75 76 75 76 77 79 82 85
39 41 43 45 46 47 48 48 47 47 46 46 47 49 50 52 53 55 57 59 60 60 61 63 65 67 69 71 71 70 70 72 74 75 76 76 76 77 80 82 83 85 88
39 42 44 46 48 48 47 45 45 45 46 48 49 51 53 55 57 59 60 60 61 63 65 67 69 70 70 68 69 72 73 75 75 76 76 77 80 82 83 84 85 88 92
40 43 44 45 45 44 43 43 44 46 48 49 51 54 56 58 59 59 61 62 65 67 68 69 70 68 69 70 71 72 73 74 76 78 80 82 84 85 86 90 95 97 101
37 38 39 39 39 41 43 45 46 48 50 53 54 56 57 58 60 62 64 66 67 67 68 68 68 69 70 70 71 73 74 75 77 79 82 83 84 87 91 96 99 101 102
37 37 38 40 41 42 44 47 50 51 53 54 56 57 59 61 63 65 65 65 67 67 68 68 69 68 70 71 72 73 74 77 79 80 82 85 88 93 96 97 97 95 91
35 37 39 40 43 45 48 50 51 53 55 56 58 60 61 62 64 65 66 66 67 68 68 68 69 70 71 72 73 74 76 77 79 82 86 90 94 95 95 91 86 83 80
38 40 41 43 45 47 50 52 54 55 57 58 60 61 63 65 67 67 67 67 67 67 68 69 70 70 71 72 72 74 76 77 81 84 89 92 93 91 84 81 78 71 68
39 42 44 47 49 50 52 54 56 58 59 60 62 64 65 65 65 65 66 67 67 69 70 71 69 68 70 72 75 76 77 80 82 86 88 90 86 77 75 72 67 64 58
44 46 48 49 50 52 54 55 57 59 61 62 63 63 63 63 64 65 65 66 68 69 68 65 67 69 72 74 76 78 79 81 83 86 86 78 71 68 64 63 61 55 50
46 48 49 51 52 52 54 56 58 60 61 62 62 62 62 63 64 64 66 66 66 64 64 66 69 71 72 74 77 78 80 82 84 81 71 64 61 59 56 51 48 47 46
45 47 49 51 52 54 56 57 58 59 59 59 60 61 62 63 65 65 64 64 64 64 66 68 69 72 74 76 76 79 82 82 77 66 60 56 54 49 42 41 42 42 42
44 47 49 51 52 53 54 55 56 56 57 58 59 61 62 62 62 63 64 64 65 68 68 67 68 70 72 74 76 80 78 70 62 56 53 51 47 41 42 43 44 43 41
46 48 50 51 51 52 54 54 55 56 56 57 58 58 59 60 62 64 65 67 69 69 68 68 68 69 70 72 74 71 64 58 55 51 47 46 38 39 43 43 44 42 41
49 50 51 52 52 53 52 52 53 54 55 56 57 60 62 63 64 66 69 69 69 68 67 68 67 67 68 70 67 59 56 53 50 47 44 41 37 39 42 44 43 39 39
52 53 54 53 53 52 53 53 51 52 55 57 61 64 67 67 68 68 68 67 67 66 66 67 67 67 67 62 56 54 51 49 47 44 42 37 38 42 44 43 39 35 38
Wind_Direction
213 223 233 242 247 254 248 253 253 258 277 285 288 292 300 306 309 308 309 310 309 308 308 307 307 305 301 299 300 301 304 304 303 300 296 293 292 293 293 294 295 296 297
241 250 244 239 246 252 250 250 255 271 274 281 287 292 298 302 304 305 306 307 308 307 305 306 302 299 297 297 298 301 303 303 301 298 295 293 293 293 295 296 296 297 298
237 240 234 246 243 241 251 256 263 270 277 286 290 292 295 298 301 302 304 305 304 304 303 299 297 295 294 295 298 301 302 300 298 296 295 293 294 294 294 295 295 295 295
240 240 237 237 246 249 243 258 275 279 283 287 289 292 295 297 299 301 302 302 302 301 299 295 293 292 293 296 299 300 299 298 297 296 295 295 294 295 295 295 294 294 293
250 256 241 252 270 270 252 262 272 277 282 285 287 291 294 296 297 299 299 301 300 298 294 291 290 292 295 297 298 298 297 296 296 296 296 295 294 293 293 292 292 292 291
248 257 268 279 280 265 261 266 273 279 280 283 288 291 292 293 294 296 298 298 296 293 289 289 291 294 296 296 296 296 294 294 295 294 294 295 294 293 293 292 290 289 286
248 252 254 258 256 264 267 271 274 276 279 283 287 289 290 291 293 294 295 294 291 288 288 291 294 294 294 295 294 293 293 294 294 295 296 295 293 292 291 291 290 289 286
243 246 249 252 257 262 267 270 273 276 280 284 285 286 287 289 291 292 291 288 286 287 291 293 293 294 293 292 293 294 296 296 296 295 294 293 293 292 290 288 287 286 286
241 244 248 253 257 261 264 267 272 275 278 281 282 284 285 287 289 288 286 285 288 291 291 292 292 291 292 293 295 296 295 295 294 293 293 293 292 290 288 287 287 286 285
243 246 249 252 256 260 263 267 270 274 276 278 280 282 286 286 285 285 285 288 289 289 289 290 291 292 293 294 294 294 294 293 293 293 293 292 290 290 289 289 288 288 288
239 244 249 253 256 259 263 266 269 272 275 278 282 283 282 283 284 286 287 287 288 288 290 291 292 293 293 294 294 294 293 293 293 292 291 289 289 290 290 290 290 290 289
240 243 248 252 257 261 264 267 271 274 277 279 279 280 282 283 285 285 286 287 288 290 291 292 292 293 294 294 294 293 293 292 291 290 290 291 291 291 291 292 291 290 289
243 247 251 255 259 263 266 270 273 274 274 276 278 280 282 283 284 286 288 290 290 290 291 292 293 293 293 293 293 293 292 292 292 292 293 293 293 293 293 292 292 292 291
245 248 252 257 262 266 269 270 271 273 275 277 279 281 283 285 288 288 289 289 290 291 292 292 293 293 293 293 293 293 293 293 294 295 296 297 297 296 297 298 299 296 293
249 253 258 262 264 264 266 270 273 275 277 279 282 285 286 286 287 288 288 289 290 292 293 293 293 293 294 294 293 293 294 295 296 297 296 295 296 297 298 298 296 292 290
257 259 260 262 265 268 271 272 274 277 280 282 283 284 285 285 286 287 290 292 292 293 293 293 294 294 294 294 294 296 296 296 296 296 295 298 300 300 300 297 294 294 295
261 263 265 267 269 272 274 276 278 280 281 282 282 283 284 286 288 289 291 292 293 293 295 295 295 295 295 295 295 295 297 298 299 300 301 303 303 301 299 300 299 298 296
265 268 270 271 273 275 276 278 279 280 281 282 284 286 287 288 289 291 292 292 293 293 293 294 295 294 293 294 295 298 299 301 302 303 304 304 305 304 302 301 301 299 298
268 270 271 272 273 275 276 277 279 280 283 284 285 285 286 288 289 291 291 292 292 293 294 294 293 293 295 297 299 300 302 303 303 305 305 306 305 302 302 302 301 304 301
265 266 268 270 272 274 277 279 281 282 283 284 284 286 288 289 289 289 290 291 291 292 293 294 295 297 298 300 302 303 304 304 306 308 306 304 303 304 305 305 306 306 306
270 271 273 275 277 278 279 279 280 281 283 285 286 286 287 287 289 290 291 292 293 295 296 297 299 301 302 302 303 304 306 307 307 306 304 302 305 307 308 309 311 312 309
276 276 277 277 277 277 278 279 280 282 283 284 285 287 289 291 292 293 295 296 297 298 298 300 301 302 303 304 305 306 307 306 306 305 304 306 308 310 312 315 317 319 315
273 273 273 274 275 278 280 282 283 283 285 287 289 291 293 294 295 296 297 298 298 299 300 300 301 304 305 305 306 306 305 306 306 307 307 310 309 309 313 313 313 314 316
279 279 278 279 280 282 283 283 284 286 289 291 294 295 296 298 300 301 300 300 301 301 301 301 304 304 304 304 305 304 305 304 307 306 308 308 304 307 313 313 314 311 314
284 284 284 285 285 285 284 284 287 289 292 294 297 299 301 301 302 302 302 302 302 300 301 302 303 303 304 305 304 303 303 304 306 306 308 306 302 309 313 313 312 307 312
283 284 284 283 282 282 284 288 292 295 298 300 302 303 302 302 303 302 301 302 301 302 303 304 305 306 307 305 304 305 306 306 306 308 309 304 304 312 314 314 312 307 310